Location: Prague
(50.0830°N, 14.4670°E)
Time: 09:58:25
(UTC+02:00)

RS-15 - Pass Details

Date: 04 April 2023
Orbit: 1885 x 2159 km, 64.8° (Epoch: 29 May)

Event Time Altitude Azimuth Distance (km) Brightness Sun altitude
Rises 01:13:11 0° 321° (NW) 5,638 11.1 -34.4°
Reaches altitude 10° 01:16:44 10° 317° (NW) 4,606 10.4 -34.4°
Maximum altitude 01:28:12 56° 245° (WSW) 2,334 8.1 -34.2°
Enters shadow 01:28:59 55° 231° (SW) 2,343 8.0 -34.2°
